STARLINK-34526, 64481

Orbit data source: Space-Track

STARLINK-34526, 64481 is a payload satellite owned by SpaceX/Seattle (US) in LEO that was launched on Mon, 23 Jun 2025 UTC via an FALCON 9 launch vehicle from the Air Force Eastern Test Range (AFETR). Payload-class satellites include a variety of spacecraft equipped with specific instruments for various scientific and technological missions. These include communications satellites like Starlink; space stations such as the ISS; scientific satellites like the Hubble; Earth observation satellites from companies like Planet Labs, Umbra, and HawkEye 360; GPS; miniature CubeSats for education and research; and military/defense satellites.

Loading next visibility...
Identifier
64481, 2025-133K
Orbit
LEO
Country
Flag of USUS
Related business
Manufacturer
SpaceX/Seattle
Mission
Operational Commercial Communications
Bus & Motor
STARLINK V2MO, Unknown motor
Mass
575 kg wet, ~530 kg dry
Launch date (UTC)
2025-06-23 (1 year ago)
Launch vehicle
FALCON 9
Launch site
Air Force Eastern Test Range (AFETR)
Object type
Payload
Rocket body
Debris
Shape & HBR
Box + 2 Pan, 17.7 m
Radar Cross Section
36.964 m², Large (>1 m²)

Expand to show TLE details & history
Last TLE update: 1 day ago

TLE from 1 day ago
0 STARLINK-34526
1 64481U 25133K   26170.85476495  .00006901  00000-0  24490-3 0  9999
2 64481  53.1619   2.0186 0001363  86.8224 273.2933 15.30200598 56722
Epoch: 2026-06-19T20:30Z
TLE epoch observation values (Epoch: 2026-06-19T20:30:51.691Z)
Latitude
-0.00001°
Longitude
146.22545°
Altitude
476.06 km
Speed
7.629 km/s
True Right ascension
00h 08m 04s
True Declination
0° 00' 00"
Sunlit
Object was in daylight at epoch
Visualization orbit readout
Latitude
Unknown
Longitude
Unknown
Altitude
Unknown
Speed
Unknown
Apparent Right ascension
Unknown
Apparent Declination
Unknown
Sunlit
N/A
Visualization observer readout
Local Sidereal Time
07:18:33
Azimuth
Unknown
Elevation
Unknown
Doppler factor
Unknown
Orbital elements
Apogee altitude
476.404 km
Perigee altitude
474.535 km
Semi-major axis
6,853.606 km
Eccentricity
0.00014
Inclination
53.1619°
RAAN
2.0186°
Arg. of periapsis
86.8224°
True anomaly
273.27771°
Mean anomaly
273.2933°
Eccentric anomaly
273.2855°
Mean motion
3.82529 °/min
Orbital period
94.11 mins
BSTAR
0.0002449
Loading maneuver chart data...
Computing Atmospheric mass density...
Loading historical data...
Loading historical data...
Loading historical data...
Loading historical data...
Loading historical data...
Loading historical data...
Loading historical data...

Documentation

Showing up to 5 results
|